EWG7XS EDDK-LOWW

Flight info

Callsign EWG7XS
Flight time 1h 12m
Altitude 35000
Route KUMIK1R KUMIK L603 TESGA DCT ESATI DCT BARSU DCT EKSOS DCT LULAR DCT RUDAP DCT BUDEX BUDEX2W
Aircraft A320/M-SDE3FGHIRWY/LB1

Departure

Time 2026-05-06 16:17
Airport Cologne Bonn Airport (EDDK)

Arrival

Time 2026-05-06 17:29
Airport Vienna International Airport (LOWW)
Time Latitude Longitude Altitude Speed Heading
2026-05-06 15:36 50.87907 7.12496 205 ft 0 kts 288°
2026-05-06 15:59 50.87906 7.12501 232 ft 3 kts 288°
2026-05-06 16:00 50.87898 7.12540 232 ft 3 kts 288°
2026-05-06 16:00 50.87892 7.12573 234 ft 4 kts 269°
2026-05-06 16:00 50.87899 7.12610 235 ft 4 kts 222°
2026-05-06 16:00 50.87916 7.12626 236 ft 0 kts 198°
2026-05-06 16:03 50.87915 7.12626 236 ft 0 kts 198°
2026-05-06 16:03 50.87903 7.12619 235 ft 3 kts 197°
2026-05-06 16:03 50.87869 7.12610 234 ft 6 kts 183°
2026-05-06 16:03 50.87822 7.12629 232 ft 7 kts 153°
2026-05-06 16:04 50.87781 7.12681 232 ft 9 kts 137°
2026-05-06 16:04 50.87729 7.12757 232 ft 11 kts 137°
2026-05-06 16:04 50.87674 7.12837 232 ft 10 kts 138°
2026-05-06 16:04 50.87623 7.12911 232 ft 9 kts 137°
2026-05-06 16:05 50.87575 7.12980 232 ft 10 kts 138°
2026-05-06 16:05 50.87513 7.13070 232 ft 14 kts 137°
2026-05-06 16:05 50.87433 7.13185 232 ft 17 kts 138°
2026-05-06 16:05 50.87344 7.13314 232 ft 18 kts 137°
2026-05-06 16:06 50.87251 7.13448 234 ft 18 kts 137°
2026-05-06 16:06 50.87164 7.13575 237 ft 16 kts 137°
2026-05-06 16:06 50.87086 7.13688 240 ft 14 kts 137°
2026-05-06 16:06 50.87021 7.13782 243 ft 11 kts 137°
2026-05-06 16:07 50.86973 7.13852 245 ft 8 kts 137°
2026-05-06 16:07 50.86936 7.13904 249 ft 7 kts 137°
2026-05-06 16:07 50.86895 7.13963 253 ft 10 kts 137°
2026-05-06 16:07 50.86825 7.14065 255 ft 16 kts 137°
2026-05-06 16:08 50.86764 7.14131 255 ft 9 kts 173°
2026-05-06 16:08 50.86713 7.14166 257 ft 7 kts 136°
2026-05-06 16:08 50.86683 7.14210 259 ft 6 kts 137°
2026-05-06 16:08 50.86645 7.14265 261 ft 10 kts 138°
2026-05-06 16:09 50.86593 7.14342 261 ft 11 kts 137°
2026-05-06 16:09 50.86541 7.14418 263 ft 9 kts 137°
2026-05-06 16:09 50.86499 7.14477 266 ft 8 kts 138°
2026-05-06 16:09 50.86455 7.14540 269 ft 9 kts 137°
2026-05-06 16:10 50.86406 7.14612 272 ft 10 kts 137°
2026-05-06 16:10 50.86351 7.14692 275 ft 12 kts 137°
2026-05-06 16:10 50.86289 7.14781 278 ft 12 kts 137°
2026-05-06 16:10 50.86235 7.14861 281 ft 10 kts 137°
2026-05-06 16:11 50.86181 7.14939 284 ft 11 kts 137°
2026-05-06 16:11 50.86119 7.15029 287 ft 13 kts 137°
2026-05-06 16:11 50.86045 7.15135 295 ft 14 kts 137°
2026-05-06 16:11 50.85976 7.15235 292 ft 12 kts 137°
2026-05-06 16:12 50.85924 7.15312 293 ft 8 kts 137°
2026-05-06 16:12 50.85884 7.15368 297 ft 9 kts 138°
2026-05-06 16:12 50.85833 7.15442 297 ft 11 kts 137°
2026-05-06 16:12 50.85770 7.15535 299 ft 12 kts 137°
2026-05-06 16:13 50.85719 7.15608 300 ft 8 kts 137°
2026-05-06 16:13 50.85673 7.15674 302 ft 12 kts 137°
2026-05-06 16:13 50.85600 7.15780 307 ft 15 kts 137°
2026-05-06 16:13 50.85537 7.15871 307 ft 10 kts 137°
2026-05-06 16:14 50.85498 7.15928 308 ft 8 kts 137°
2026-05-06 16:14 50.85435 7.16019 309 ft 16 kts 137°
2026-05-06 16:14 50.85364 7.16129 308 ft 13 kts 128°
2026-05-06 16:14 50.85335 7.16265 308 ft 16 kts 93°
2026-05-06 16:15 50.85362 7.16410 309 ft 12 kts 57°
2026-05-06 16:15 50.85413 7.16485 308 ft 10 kts 31°
2026-05-06 16:15 50.85488 7.16519 307 ft 12 kts
2026-05-06 16:15 50.85557 7.16515 308 ft 9 kts 326°
2026-05-06 16:16 50.85602 7.16450 309 ft 10 kts 317°
2026-05-06 16:16 50.85772 7.16203 306 ft 67 kts 317°
2026-05-06 16:16 50.86276 7.15474 292 ft 127 kts 317°
2026-05-06 16:16 50.87033 7.14368 462 ft 157 kts 316°
2026-05-06 16:17 50.87830 7.13149 1146 ft 162 kts 315°
2026-05-06 16:17 50.88649 7.11882 1882 ft 170 kts 320°
2026-05-06 16:17 50.89773 7.11063 2264 ft 192 kts 354°
2026-05-06 16:17 50.91117 7.11526 2808 ft 208 kts 26°
2026-05-06 16:18 50.92373 7.12686 3512 ft 215 kts 28°
2026-05-06 16:18 50.93538 7.14234 4385 ft 222 kts 49°
2026-05-06 16:18 50.94349 7.16501 4917 ft 250 kts 62°
2026-05-06 16:18 50.95136 7.19048 5548 ft 270 kts 62°
2026-05-06 16:19 50.95986 7.21756 6356 ft 279 kts 62°
2026-05-06 16:19 50.96859 7.24529 7161 ft 283 kts 63°
2026-05-06 16:19 50.97748 7.27342 7944 ft 289 kts 63°
2026-05-06 16:19 50.98660 7.30218 8723 ft 294 kts 63°
2026-05-06 16:20 50.99588 7.33149 9501 ft 300 kts 64°
2026-05-06 16:20 51.00524 7.36158 10117 ft 312 kts 67°
2026-05-06 16:20 51.01200 7.39548 10350 ft 334 kts 81°
2026-05-06 16:20 51.01398 7.43307 10739 ft 347 kts 94°
2026-05-06 16:21 51.01082 7.47115 11388 ft 351 kts 106°
2026-05-06 16:21 51.00384 7.50848 12076 ft 355 kts 110°
2026-05-06 16:21 50.99647 7.54617 12782 ft 360 kts 109°
2026-05-06 16:21 50.98902 7.58439 13481 ft 364 kts 109°
2026-05-06 16:22 50.98151 7.62289 14174 ft 367 kts 109°
2026-05-06 16:22 50.97392 7.66176 14846 ft 370 kts 109°
2026-05-06 16:22 50.96625 7.70088 15510 ft 373 kts 110°
2026-05-06 16:22 50.95846 7.74036 16149 ft 376 kts 110°
2026-05-06 16:23 50.95056 7.78010 16780 ft 380 kts 110°
2026-05-06 16:23 50.94121 7.81932 17399 ft 380 kts 119°
2026-05-06 16:23 50.92783 7.85538 18020 ft 380 kts 127°
2026-05-06 16:23 50.91310 7.89045 18563 ft 383 kts 127°
2026-05-06 16:24 50.89831 7.92580 19108 ft 387 kts 127°
2026-05-06 16:24 50.88342 7.96147 19639 ft 390 kts 127°
2026-05-06 16:24 50.86840 7.99737 20184 ft 393 kts 127°
2026-05-06 16:24 50.85325 8.03345 20714 ft 396 kts 127°
2026-05-06 16:25 50.83779 8.07021 21250 ft 400 kts 127°
2026-05-06 16:25 50.82246 8.10668 21772 ft 403 kts 127°
2026-05-06 16:25 50.80689 8.14378 22293 ft 407 kts 127°
2026-05-06 16:25 50.79117 8.18121 22799 ft 410 kts 127°
2026-05-06 16:26 50.77530 8.21888 23297 ft 414 kts 127°
2026-05-06 16:26 50.75922 8.25690 23725 ft 417 kts 127°
2026-05-06 16:26 50.74301 8.29508 24157 ft 420 kts 127°
2026-05-06 16:26 50.72673 8.33339 24581 ft 421 kts 127°
2026-05-06 16:27 50.70980 8.37110 25002 ft 420 kts 133°
2026-05-06 16:27 50.68971 8.40426 25416 ft 417 kts 143°
2026-05-06 16:27 50.66658 8.43156 25800 ft 414 kts 152°
2026-05-06 16:27 50.64149 8.45344 26221 ft 412 kts 155°
2026-05-06 16:28 50.61615 8.47475 26646 ft 413 kts 155°
2026-05-06 16:28 50.59076 8.49616 27044 ft 414 kts 155°
2026-05-06 16:28 50.56530 8.51767 27447 ft 416 kts 155°
2026-05-06 16:28 50.53980 8.53916 27872 ft 416 kts 154°
2026-05-06 16:29 50.51423 8.56065 28304 ft 417 kts 154°
2026-05-06 16:29 50.48866 8.58210 28677 ft 418 kts 154°
2026-05-06 16:29 50.46298 8.60373 29032 ft 419 kts 153°
2026-05-06 16:29 50.43870 8.62950 29380 ft 424 kts 144°
2026-05-06 16:30 50.41690 8.66087 29712 ft 427 kts 139°
2026-05-06 16:30 50.40265 8.68251 29915 ft 428 kts 139°
2026-05-06 16:30 50.37405 8.72583 30247 ft 430 kts 139°
2026-05-06 16:30 50.35245 8.75841 30470 ft 432 kts 139°
2026-05-06 16:31 50.33071 8.79109 30692 ft 434 kts 139°
2026-05-06 16:31 50.30917 8.82341 30882 ft 436 kts 139°
2026-05-06 16:31 50.28717 8.85634 31050 ft 439 kts 139°
2026-05-06 16:31 50.26510 8.88934 31300 ft 440 kts 139°
2026-05-06 16:32 50.24302 8.92240 31596 ft 439 kts 139°
2026-05-06 16:32 50.22096 8.95537 31892 ft 439 kts 139°
2026-05-06 16:32 50.19887 8.98833 32186 ft 439 kts 139°
2026-05-06 16:32 50.17685 9.02117 32481 ft 439 kts 140°
2026-05-06 16:33 50.15475 9.05409 32779 ft 438 kts 140°
2026-05-06 16:33 50.13270 9.08684 33068 ft 438 kts 140°
2026-05-06 16:33 50.11060 9.11959 33352 ft 438 kts 140°
2026-05-06 16:34 50.07247 9.19394 33885 ft 447 kts 122°
2026-05-06 16:34 50.05983 9.23844 34115 ft 453 kts 112°
2026-05-06 16:34 50.05219 9.28622 34340 ft 458 kts 103°
2026-05-06 16:34 50.04673 9.33501 34561 ft 458 kts 104°
2026-05-06 16:35 50.04122 9.38384 34734 ft 459 kts 104°
2026-05-06 16:35 50.03010 9.48087 34796 ft 453 kts 104°
2026-05-06 16:36 50.01894 9.57722 34794 ft 452 kts 104°
2026-05-06 16:36 50.00962 9.65728 34793 ft 455 kts 105°
2026-05-06 16:37 49.99818 9.75443 34789 ft 457 kts 105°
2026-05-06 16:37 49.98672 9.85171 34790 ft 458 kts 105°
2026-05-06 16:38 49.97518 9.94896 34784 ft 458 kts 105°
2026-05-06 16:38 49.96358 10.04617 34784 ft 458 kts 105°
2026-05-06 16:39 49.95182 10.14358 34757 ft 459 kts 106°
2026-05-06 16:39 49.94001 10.24039 34753 ft 461 kts 106°
2026-05-06 16:40 49.92794 10.33825 34761 ft 462 kts 106°
2026-05-06 16:40 49.91062 10.43310 34758 ft 454 kts 117°
2026-05-06 16:41 49.88713 10.52397 34746 ft 454 kts 118°
2026-05-06 16:41 49.86349 10.61495 34746 ft 456 kts 118°
2026-05-06 16:42 49.83977 10.70620 34756 ft 457 kts 118°
2026-05-06 16:42 49.81594 10.79751 34763 ft 457 kts 118°
2026-05-06 16:43 49.79199 10.88865 34766 ft 457 kts 118°
2026-05-06 16:43 49.76802 10.97966 34741 ft 457 kts 118°
2026-05-06 16:44 49.74399 11.07068 34752 ft 457 kts 118°
2026-05-06 16:44 49.71987 11.16165 34760 ft 457 kts 118°
2026-05-06 16:45 49.69567 11.25254 34753 ft 457 kts 118°
2026-05-06 16:45 49.67140 11.34329 34735 ft 457 kts 118°
2026-05-06 16:46 49.64749 11.43414 34742 ft 458 kts 116°
2026-05-06 16:46 49.62736 11.52782 34743 ft 461 kts 112°
2026-05-06 16:47 49.60913 11.62265 34731 ft 461 kts 112°
2026-05-06 16:47 49.59036 11.71638 34732 ft 460 kts 114°
2026-05-06 16:48 49.57061 11.81005 34704 ft 459 kts 114°
2026-05-06 16:48 49.55061 11.90353 34714 ft 460 kts 114°
2026-05-06 16:49 49.53068 11.99709 34722 ft 460 kts 114°
2026-05-06 16:49 49.51080 12.09062 34726 ft 460 kts 114°
2026-05-06 16:50 49.49078 12.18412 34706 ft 460 kts 115°
2026-05-06 16:50 49.47071 12.27753 34716 ft 460 kts 115°
2026-05-06 16:51 49.45058 12.37085 34720 ft 459 kts 115°
2026-05-06 16:51 49.43040 12.46395 34719 ft 459 kts 115°
2026-05-06 16:52 49.41017 12.55693 34728 ft 459 kts 115°
2026-05-06 16:52 49.38978 12.64993 34714 ft 460 kts 115°
2026-05-06 16:53 49.36930 12.74296 34718 ft 460 kts 115°
2026-05-06 16:53 49.34806 12.83535 34725 ft 458 kts 117°
2026-05-06 16:54 49.32541 12.92653 34717 ft 457 kts 117°
2026-05-06 16:54 49.30258 13.01754 34714 ft 457 kts 117°
2026-05-06 16:55 49.28000 13.10861 34718 ft 458 kts 117°
2026-05-06 16:55 49.25750 13.19980 34716 ft 457 kts 117°
2026-05-06 16:56 49.23504 13.29015 34720 ft 457 kts 118°
2026-05-06 16:56 49.21121 13.38021 34719 ft 456 kts 119°
2026-05-06 16:57 49.18668 13.46950 34702 ft 456 kts 119°
2026-05-06 16:57 49.16218 13.55898 34714 ft 456 kts 119°
2026-05-06 16:58 49.13793 13.64854 34701 ft 456 kts 119°
2026-05-06 16:58 49.11363 13.73806 34715 ft 456 kts 119°
2026-05-06 16:59 49.08925 13.82743 34681 ft 456 kts 119°
2026-05-06 16:59 49.06475 13.91680 34691 ft 457 kts 120°
2026-05-06 17:00 49.04012 14.00606 34700 ft 457 kts 120°
2026-05-06 17:00 49.01542 14.09522 33975 ft 456 kts 120°
2026-05-06 17:00 49.00307 14.13967 33290 ft 455 kts 120°
2026-05-06 17:01 48.99077 14.18387 32696 ft 452 kts 120°
2026-05-06 17:01 48.97856 14.22774 32113 ft 448 kts 121°
2026-05-06 17:01 48.96646 14.27119 31581 ft 444 kts 121°
2026-05-06 17:01 48.95427 14.31407 31046 ft 438 kts 124°
2026-05-06 17:02 48.93931 14.35360 30533 ft 425 kts 133°
2026-05-06 17:02 48.92173 14.38913 30018 ft 419 kts 136°
2026-05-06 17:02 48.90400 14.42414 29462 ft 416 kts 136°
2026-05-06 17:02 48.88641 14.45895 28895 ft 413 kts 135°
2026-05-06 17:03 48.86900 14.49345 28377 ft 410 kts 135°
2026-05-06 17:03 48.85173 14.52764 27876 ft 406 kts 135°
2026-05-06 17:03 48.83482 14.56104 27401 ft 402 kts 135°
2026-05-06 17:03 48.81783 14.59456 26897 ft 399 kts 135°
2026-05-06 17:04 48.80098 14.62782 26430 ft 396 kts 135°
2026-05-06 17:04 48.78425 14.66071 25976 ft 392 kts 135°
2026-05-06 17:04 48.76767 14.69324 25550 ft 388 kts 135°
2026-05-06 17:04 48.75121 14.72548 25119 ft 385 kts 135°
2026-05-06 17:05 48.73489 14.75734 24690 ft 381 kts 135°
2026-05-06 17:05 48.71867 14.78896 24266 ft 378 kts 135°
2026-05-06 17:05 48.70263 14.82031 23853 ft 375 kts 135°
2026-05-06 17:05 48.68671 14.85145 23435 ft 372 kts 134°
2026-05-06 17:06 48.67095 14.88227 22962 ft 369 kts 134°
2026-05-06 17:06 48.65526 14.91284 22476 ft 366 kts 134°
2026-05-06 17:06 48.63968 14.94311 21981 ft 364 kts 134°
2026-05-06 17:06 48.62411 14.97323 21497 ft 362 kts 134°
2026-05-06 17:07 48.60858 15.00327 21044 ft 360 kts 134°
2026-05-06 17:07 48.59441 15.03432 20607 ft 364 kts 125°
2026-05-06 17:07 48.58428 15.06956 20178 ft 369 kts 113°
2026-05-06 17:07 48.57770 15.10714 19749 ft 369 kts 110°
2026-05-06 17:08 48.57135 15.14460 19334 ft 367 kts 110°
2026-05-06 17:08 48.56500 15.18172 18940 ft 364 kts 110°
2026-05-06 17:08 48.55862 15.21861 18553 ft 362 kts 110°
2026-05-06 17:08 48.55227 15.25524 18165 ft 359 kts 110°
2026-05-06 17:09 48.54596 15.29162 17758 ft 357 kts 110°
2026-05-06 17:09 48.53966 15.32773 17305 ft 355 kts 110°
2026-05-06 17:09 48.53339 15.36359 16918 ft 352 kts 110°
2026-05-06 17:09 48.52718 15.39911 16527 ft 349 kts 110°
2026-05-06 17:10 48.52120 15.43452 16119 ft 349 kts 106°
2026-05-06 17:10 48.51834 15.47089 15741 ft 349 kts 99°
2026-05-06 17:10 48.51637 15.50734 15369 ft 347 kts 99°
2026-05-06 17:10 48.51440 15.54349 15003 ft 345 kts 99°
2026-05-06 17:11 48.51240 15.57946 14631 ft 343 kts 99°
2026-05-06 17:11 48.51038 15.61514 14279 ft 341 kts 99°
2026-05-06 17:11 48.50835 15.65065 13937 ft 339 kts 98°
2026-05-06 17:11 48.50634 15.68591 13572 ft 337 kts 98°
2026-05-06 17:12 48.50435 15.72056 13181 ft 335 kts 98°
2026-05-06 17:12 48.50231 15.75543 12807 ft 333 kts 98°
2026-05-06 17:12 48.50027 15.79000 12451 ft 330 kts 98°
2026-05-06 17:12 48.49823 15.82429 12069 ft 327 kts 98°
2026-05-06 17:13 48.49619 15.85833 11754 ft 325 kts 98°
2026-05-06 17:13 48.49415 15.89228 11714 ft 326 kts 98°
2026-05-06 17:13 48.49210 15.92631 11723 ft 326 kts 98°
2026-05-06 17:13 48.49003 15.96034 11709 ft 326 kts 98°
2026-05-06 17:14 48.48797 15.99416 11351 ft 324 kts 98°
2026-05-06 17:14 48.48591 16.02786 10961 ft 322 kts 99°
2026-05-06 17:14 48.48094 16.06025 10554 ft 315 kts 115°
2026-05-06 17:14 48.47057 16.08870 10195 ft 306 kts 131°
2026-05-06 17:15 48.45601 16.11150 9843 ft 298 kts 146°
2026-05-06 17:15 48.43888 16.12736 9702 ft 283 kts 159°
2026-05-06 17:15 48.42105 16.13922 9385 ft 279 kts 160°
2026-05-06 17:15 48.40334 16.15089 8978 ft 278 kts 160°
2026-05-06 17:16 48.38569 16.16250 8615 ft 275 kts 160°
2026-05-06 17:16 48.36849 16.17386 8460 ft 265 kts 161°
2026-05-06 17:16 48.35196 16.18477 8342 ft 254 kts 161°
2026-05-06 17:16 48.33613 16.19521 8215 ft 244 kts 161°
2026-05-06 17:17 48.32175 16.20882 7934 ft 248 kts 143°
2026-05-06 17:17 48.31097 16.22932 7609 ft 255 kts 123°
2026-05-06 17:17 48.30543 16.25481 7299 ft 261 kts 101°
2026-05-06 17:17 48.30617 16.28204 6989 ft 264 kts 79°
2026-05-06 17:18 48.31269 16.30790 6625 ft 267 kts 60°
2026-05-06 17:18 48.32457 16.32910 6300 ft 266 kts 37°
2026-05-06 17:18 48.34057 16.34233 5961 ft 262 kts 14°
2026-05-06 17:18 48.35831 16.34582 5598 ft 255 kts 352°
2026-05-06 17:19 48.37544 16.34037 5234 ft 251 kts 340°
2026-05-06 17:19 48.39209 16.33325 5028 ft 245 kts 341°
2026-05-06 17:19 48.40865 16.33159 4978 ft 239 kts 12°
2026-05-06 17:19 48.42330 16.34297 4993 ft 240 kts 46°
2026-05-06 17:20 48.43293 16.36311 5000 ft 237 kts 65°
2026-05-06 17:20 48.43949 16.38588 4995 ft 236 kts 79°
2026-05-06 17:20 48.44039 16.40963 4984 ft 220 kts 106°
2026-05-06 17:20 48.43504 16.43023 5034 ft 207 kts 130°
2026-05-06 17:21 48.42548 16.44511 5018 ft 191 kts 152°
2026-05-06 17:21 48.41373 16.45298 5003 ft 183 kts 169°
2026-05-06 17:21 48.40153 16.45818 5002 ft 182 kts 169°
2026-05-06 17:21 48.38937 16.46339 5004 ft 181 kts 169°
2026-05-06 17:22 48.37734 16.46854 5004 ft 179 kts 169°
2026-05-06 17:22 48.36533 16.47367 5001 ft 180 kts 169°
2026-05-06 17:22 48.35735 16.47708 5006 ft 180 kts 169°
2026-05-06 17:22 48.34113 16.48402 4942 ft 182 kts 169°
2026-05-06 17:23 48.32897 16.48921 4760 ft 181 kts 169°
2026-05-06 17:23 48.31688 16.49437 4544 ft 180 kts 169°
2026-05-06 17:23 48.30487 16.49950 4308 ft 179 kts 169°
2026-05-06 17:23 48.29307 16.50453 4073 ft 178 kts 169°
2026-05-06 17:24 48.28130 16.50955 3823 ft 175 kts 169°
2026-05-06 17:24 48.26976 16.51448 3586 ft 170 kts 170°
2026-05-06 17:24 48.25852 16.51928 3369 ft 167 kts 169°
2026-05-06 17:24 48.24741 16.52400 3153 ft 165 kts 170°
2026-05-06 17:25 48.23996 16.52716 3006 ft 164 kts 169°
2026-05-06 17:25 48.22919 16.53175 2789 ft 154 kts 169°
2026-05-06 17:25 48.21956 16.53588 2603 ft 137 kts 170°
2026-05-06 17:25 48.21065 16.53965 2427 ft 131 kts 170°
2026-05-06 17:26 48.20201 16.54331 2268 ft 128 kts 170°
2026-05-06 17:26 48.19351 16.54691 2088 ft 126 kts 170°
2026-05-06 17:26 48.18506 16.55049 1919 ft 126 kts 170°
2026-05-06 17:26 48.17663 16.55406 1752 ft 126 kts 170°
2026-05-06 17:27 48.16824 16.55762 1589 ft 125 kts 169°
2026-05-06 17:27 48.15980 16.56119 1421 ft 128 kts 168°
2026-05-06 17:27 48.15128 16.56481 1264 ft 126 kts 165°
2026-05-06 17:27 48.14282 16.56840 1099 ft 126 kts 166°
2026-05-06 17:28 48.13441 16.57213 913 ft 127 kts 165°
2026-05-06 17:28 48.12597 16.57559 759 ft 125 kts 164°
2026-05-06 17:28 48.11764 16.57908 626 ft 123 kts 164°
2026-05-06 17:28 48.11052 16.58209 619 ft 83 kts 164°
2026-05-06 17:29 48.10647 16.58381 617 ft 38 kts 164°
2026-05-06 17:29 48.10436 16.58461 620 ft 25 kts 173°
2026-05-06 17:29 48.10283 16.58455 613 ft 19 kts 190°
2026-05-06 17:29 48.10185 16.58420 614 ft 9 kts 194°
2026-05-06 17:30 48.10125 16.58385 608 ft 10 kts 216°
2026-05-06 17:30 48.10095 16.58289 610 ft 10 kts 254°
2026-05-06 17:30 48.10103 16.58199 611 ft 10 kts 314°
2026-05-06 17:30 48.10182 16.58158 617 ft 12 kts 344°
2026-05-06 17:31 48.10260 16.58125 609 ft 11 kts 344°
2026-05-06 17:31 48.10332 16.58095 610 ft 11 kts 344°
2026-05-06 17:31 48.10419 16.58058 613 ft 13 kts 344°
2026-05-06 17:31 48.10504 16.58023 614 ft 13 kts 344°
2026-05-06 17:32 48.10585 16.57989 611 ft 11 kts 344°
2026-05-06 17:32 48.10661 16.57956 615 ft 13 kts 343°
2026-05-06 17:32 48.10747 16.57919 615 ft 14 kts 345°
2026-05-06 17:32 48.10848 16.57877 615 ft 15 kts 344°
2026-05-06 17:33 48.10947 16.57835 616 ft 14 kts 344°
2026-05-06 17:33 48.11037 16.57797 614 ft 13 kts 343°
2026-05-06 17:33 48.11121 16.57760 616 ft 12 kts 338°
2026-05-06 17:33 48.11174 16.57663 621 ft 13 kts 296°
2026-05-06 17:34 48.11217 16.57531 611 ft 14 kts 296°
2026-05-06 17:34 48.11259 16.57403 614 ft 13 kts 296°
2026-05-06 17:34 48.11287 16.57315 620 ft 7 kts 296°
2026-05-06 17:34 48.11307 16.57253 614 ft 6 kts 296°
2026-05-06 17:35 48.11325 16.57198 613 ft 6 kts 296°
2026-05-06 17:35 48.11341 16.57150 611 ft 5 kts 296°
2026-05-06 17:35 48.11362 16.57088 615 ft 8 kts 296°
2026-05-06 17:36 48.11445 16.56830 619 ft 16 kts 296°
2026-05-06 17:36 48.11494 16.56681 612 ft 16 kts 296°
2026-05-06 17:36 48.11541 16.56538 620 ft 16 kts 296°
2026-05-06 17:36 48.11589 16.56387 613 ft 16 kts 296°
2026-05-06 17:37 48.11638 16.56240 619 ft 16 kts 296°
2026-05-06 17:37 48.11690 16.56078 614 ft 18 kts 295°
2026-05-06 17:37 48.11743 16.55917 611 ft 17 kts 295°
2026-05-06 17:37 48.11790 16.55773 616 ft 14 kts 296°
2026-05-06 17:38 48.11825 16.55666 615 ft 10 kts 296°
2026-05-06 17:38 48.11851 16.55596 614 ft 6 kts 320°
2026-05-06 17:38 48.11894 16.55608 608 ft 6 kts 26°
2026-05-06 17:38 48.11918 16.55627 612 ft 2 kts 26°
2026-05-06 17:39 48.11928 16.55633 615 ft 0 kts 26°
2026-05-06 17:39 48.11929 16.55634 614 ft 0 kts 26°